Starlink 32709

operational
NORAD ID: 62439 Int'l Des: 2024-251 Owner: SPXS Country: US Constellation: starlink
LEOCIRCULAR

Über Starlink 32709

Beschreibung wird geladen...

Live-Position

3D-Globus wird geladen...

Nächste Überflüge

Höhenverlauf

Altitude vs Time

uPlot chart will show altitude changes over time

Zweizeiliger Elementsatz

1 62439U 24251H 25304.75548402 .00043725 00000-0 14798-2 0 9999
2 62439 53.1596 214.5022 0002138 95.0664 265.0581 15.30199116 48202
Epoch: 31. Okt. 2025 • Age: 25 hours

Aktueller Status

Höhe 478.9 km
Geschwindigkeit 7.63 km/s
Subsatellitenpunkt -12.47°S, 128.31°W
Startdatum 29. Dez. 2024
Alter 0.8 years
Typ internet

Technische Details

Klassifizierung Payload
Masse 730.00 kg
Trockenmasse 700.00 kg
Gesamtmasse 730.00 kg
Länge 0.30 m
Durchmesser 4.10 m
Spannweite 29.00 m
Form Box + pan
Hersteller SPXS
Bus-Typ Starlink V2M
Phasenstatus In Orbit
Besitzer/Staat SPXS/US

Große Konstellationen

Loading constellations...